• In Belarus
  • List of Countries
  • For 7 days
  • Water Temperature
  • Satellite Maps
  • Weather Map
  • Weather Widgets
  • user-avatar
    Login

    Hourly Weather Sackville

    Today, 21 November, Tuesday

    Time Temperature Precipitation Wind Pressure Humidity
    00:00 -9°C° 0 mm 7 mps 753 mmHg 52%
    01:00 -9°C° 0 mm 7 mps 754 mmHg 52%
    02:00 -9°C° 0 mm 7 mps 754 mmHg 51%
    03:00 -9°C° 0 mm 7 mps 755 mmHg 51%
    04:00 -9°C° 0 mm 7 mps 756 mmHg 50%
    05:00 -9°C° 0 mm 7 mps 757 mmHg 49%
    06:00 -9°C° 0 mm 7 mps 758 mmHg 48%
    07:00 -9°C° 0 mm 7 mps 758 mmHg 47%
    08:00 -9°C° 0 mm 6 mps 759 mmHg 46%
    09:00 -8°C° 0 mm 6 mps 759 mmHg 42%
    10:00 -5°C° 0 mm 6 mps 760 mmHg 38%
    11:00 -4°C° 0 mm 5 mps 760 mmHg 34%
    12:00 -2°C° 0 mm 5 mps 760 mmHg 38%
    13:00 0°C° 0 mm 5 mps 759 mmHg 41%
    14:00 +2°C° 0 mm 5 mps 759 mmHg 45%
    15:00 +2°C° 0 mm 5 mps 759 mmHg 56%
    16:00 +2°C° 0 mm 5 mps 759 mmHg 66%
    17:00 +3°C° 0 mm 5 mps 759 mmHg 77%
    18:00 +3°C° 0 mm 5 mps 759 mmHg 79%
    19:00 +4°C° 0 mm 6 mps 759 mmHg 82%
    20:00 +4°C° 0 mm 6 mps 759 mmHg 84%
    21:00 +4°C° 0 mm 6 mps 759 mmHg 85%
    22:00 +5°C° 0 mm 6 mps 758 mmHg 86%
    23:00 +5°C° 0 mm 6 mps 758 mmHg 87%

    Tomorrow, 22 November, Wednesday

    Time Temperature Precipitation Wind Pressure Humidity
    00:00 +5°C° 0 mm 6 mps 758 mmHg 88%
    01:00 +6°C° 0 mm 5 mps 758 mmHg 88%
    02:00 +6°C° 0 mm 5 mps 758 mmHg 88%
    03:00 +5°C° 0 mm 5 mps 758 mmHg 88%
    04:00 +5°C° 0 mm 5 mps 758 mmHg 89%
    05:00 +5°C° 0 mm 5 mps 758 mmHg 89%
    06:00 +5°C° 0 mm 5 mps 758 mmHg 89%
    07:00 +5°C° 0 mm 4 mps 758 mmHg 90%
    08:00 +5°C° 0 mm 4 mps 759 mmHg 90%
    09:00 +6°C° 0 mm 4 mps 759 mmHg 85%
    10:00 +8°C° 0 mm 4 mps 759 mmHg 81%
    11:00 +9°C° 0 mm 5 mps 758 mmHg 76%
    12:00 +10°C° 0.1 mm 4 mps 758 mmHg 78%
    13:00 +11°C° 0.1 mm 4 mps 757 mmHg 79%
    14:00 +11°C° 0.1 mm 4 mps 756 mmHg 80%
    15:00 +10°C° 2.5 mm 4 mps 755 mmHg 85%
    16:00 +10°C° 2.5 mm 4 mps 754 mmHg 91%
    17:00 +10°C° 2.5 mm 4 mps 753 mmHg 96%
    18:00 +10°C° 3.1 mm 5 mps 752 mmHg 95%
    19:00 +10°C° 3.1 mm 6 mps 751 mmHg 94%
    20:00 +11°C° 3.1 mm 6 mps 750 mmHg 93%
    21:00 +9°C° 0.8 mm 6 mps 750 mmHg 92%
    22:00 +8°C° 0.8 mm 6 mps 750 mmHg 91%
    23:00 +5°C° 0.8 mm 6 mps 750 mmHg 91%

    Day after tomorrow, 23 November, Thursday

    Time Temperature Precipitation Wind Pressure Humidity
    00:00 +4°C° 0.1 mm 6 mps 751 mmHg 90%
    01:00 +3°C° 0.1 mm 5 mps 751 mmHg 89%
    02:00 +2°C° 0.1 mm 5 mps 752 mmHg 88%
    03:00 +1°C° 0 mm 5 mps 752 mmHg 86%
    04:00 0°C° 0 mm 5 mps 753 mmHg 85%
    05:00 -1°C° 0 mm 5 mps 753 mmHg 84%
    06:00 -2°C° 0 mm 5 mps 754 mmHg 81%
    07:00 -2°C° 0 mm 5 mps 754 mmHg 79%
    08:00 -4°C° 0 mm 5 mps 755 mmHg 76%
    09:00 -2°C° 0 mm 5 mps 755 mmHg 72%
    10:00 -2°C° 0 mm 4 mps 755 mmHg 68%
    11:00 -1°C° 0 mm 4 mps 755 mmHg 63%
    12:00 -1°C° 0 mm 4 mps 755 mmHg 62%
    13:00 +1°C° 0 mm 3 mps 755 mmHg 60%
    14:00 +1°C° 0 mm 3 mps 755 mmHg 58%
    15:00 +2°C° 0 mm 2 mps 755 mmHg 62%
    16:00 +1°C° 0 mm 2 mps 755 mmHg 66%
    17:00 -1°C° 0 mm 2 mps 755 mmHg 70%
    18:00 -1°C° 0 mm 2 mps 755 mmHg 72%
    19:00 -1°C° 0 mm 2 mps 755 mmHg 73%
    20:00 -2°C° 0 mm 2 mps 755 mmHg 75%
    21:00 -2°C° 0 mm 2 mps 755 mmHg 74%
    22:00 -2°C° 0 mm 2 mps 754 mmHg 73%
    23:00 -2°C° 0 mm 2 mps 754 mmHg 71%

    24 November, Friday

    Time Temperature Precipitation Wind Pressure Humidity
    00:00 -1°C° 0 mm 2 mps 754 mmHg 71%
    01:00 -1°C° 0 mm 2 mps 753 mmHg 70%
    02:00 -1°C° 0 mm 2 mps 753 mmHg 70%
    03:00 -1°C° 0 mm 2 mps 753 mmHg 69%
    04:00 -1°C° 0 mm 2 mps 753 mmHg 69%
    05:00 -1°C° 0 mm 2 mps 753 mmHg 69%
    06:00 -1°C° 0 mm 2 mps 753 mmHg 70%
    07:00 -1°C° 0 mm 3 mps 752 mmHg 71%
    08:00 0°C° 0 mm 3 mps 752 mmHg 72%
    09:00 +1°C° 0 mm 3 mps 752 mmHg 66%
    10:00 +1°C° 0 mm 4 mps 752 mmHg 61%
    11:00 +1°C° 0 mm 5 mps 752 mmHg 55%
    12:00 +2°C° 0 mm 5 mps 752 mmHg 56%
    13:00 +2°C° 0 mm 5 mps 752 mmHg 56%
    14:00 +2°C° 0 mm 6 mps 752 mmHg 57%
    15:00 +2°C° 0 mm 5 mps 753 mmHg 60%
    16:00 +1°C° 0 mm 5 mps 754 mmHg 62%
    17:00 0°C° 0 mm 5 mps 755 mmHg 64%
    18:00 -1°C° 0 mm 4 mps 755 mmHg 65%
    19:00 -2°C° 0 mm 4 mps 756 mmHg 66%
    20:00 -4°C° 0 mm 3 mps 757 mmHg 66%
    21:00 -4°C° 0 mm 3 mps 757 mmHg 65%
    22:00 -3°C° 0 mm 2 mps 757 mmHg 64%
    23:00 -4°C° 0 mm 2 mps 757 mmHg 62%

    25 November, Saturday

    Time Temperature Precipitation Wind Pressure Humidity
    00:00 -4°C° 0 mm 2 mps 757 mmHg 61%
    01:00 -2°C° 0 mm 1 mps 757 mmHg 60%
    02:00 -2°C° 0 mm 1 mps 757 mmHg 59%
    03:00 -3°C° 0 mm 2 mps 757 mmHg 60%
    04:00 -3°C° 0 mm 2 mps 757 mmHg 61%
    05:00 -2°C° 0 mm 2 mps 757 mmHg 62%
    06:00 -2°C° 0 mm 3 mps 757 mmHg 68%
    07:00 -1°C° 0 mm 3 mps 757 mmHg 73%
    08:00 -2°C° 0 mm 4 mps 757 mmHg 78%
    09:00 0°C° 0 mm 5 mps 756 mmHg 74%
    10:00 +2°C° 0 mm 6 mps 756 mmHg 69%
    11:00 +4°C° 0 mm 7 mps 755 mmHg 65%
    12:00 +5°C° 0 mm 7 mps 754 mmHg 65%
    13:00 +5°C° 0 mm 7 mps 753 mmHg 65%
    14:00 +6°C° 0 mm 7 mps 753 mmHg 65%
    15:00 +5°C° 0 mm 7 mps 752 mmHg 70%
    16:00 +5°C° 0 mm 6 mps 752 mmHg 74%
    17:00 +4°C° 0 mm 6 mps 752 mmHg 79%
    18:00 +5°C° 0 mm 6 mps 752 mmHg 81%
    19:00 +5°C° 0 mm 6 mps 751 mmHg 83%
    20:00 +5°C° 0 mm 6 mps 751 mmHg 85%
    21:00 +7°C° 0.1 mm 6 mps 751 mmHg 86%
    22:00 +7°C° 0.1 mm 6 mps 750 mmHg 87%
    23:00 +7°C° 0.1 mm 6 mps 750 mmHg 88%

    26 November, Sunday

    Time Temperature Precipitation Wind Pressure Humidity
    00:00 +7°C° 0.1 mm 5 mps 750 mmHg 89%
    01:00 +7°C° 0.1 mm 5 mps 749 mmHg 90%
    02:00 +8°C° 0.1 mm 5 mps 749 mmHg 91%
    03:00 +7°C° 0.2 mm 4 mps 749 mmHg 93%
    04:00 +8°C° 0.2 mm 3 mps 748 mmHg 94%
    05:00 +8°C° 0.2 mm 3 mps 748 mmHg 95%
    06:00 +8°C° 0.4 mm 2 mps 748 mmHg 96%
    07:00 +7°C° 0.4 mm 2 mps 748 mmHg 97%
    08:00 +8°C° 0.4 mm 1 mps 748 mmHg 97%
    09:00 +8°C° 0.5 mm 1 mps 748 mmHg 97%
    10:00 +8°C° 0.5 mm 1 mps 747 mmHg 96%
    11:00 +8°C° 0.5 mm 1 mps 747 mmHg 95%
    12:00 +7°C° 0.9 mm 2 mps 746 mmHg 95%
    13:00 +7°C° 0.9 mm 2 mps 745 mmHg 94%
    14:00 +5°C° 0.9 mm 3 mps 744 mmHg 94%
    15:00 +5°C° 1.3 mm 3 mps 744 mmHg 94%
    16:00 +4°C° 1.3 mm 3 mps 744 mmHg 94%
    17:00 +4°C° 1.3 mm 4 mps 744 mmHg 93%
    18:00 +4°C° 0.5 mm 4 mps 744 mmHg 93%
    19:00 +4°C° 0.5 mm 4 mps 744 mmHg 92%
    20:00 +2°C° 0.5 mm 5 mps 744 mmHg 92%
    21:00 +2°C° 0.5 mm 5 mps 744 mmHg 91%
    22:00 +2°C° 0.5 mm 5 mps 743 mmHg 91%
    23:00 +2°C° 0.5 mm 5 mps 743 mmHg 90%
    Show more